Weather History for Boscobel, WI

Change the Weather History Date:

Sunday, April 13, 2014

  Actual Average (KPDC) Record (KPDC)
Temperature  
Mean Temperature 49 °F -  
Max Temperature 54 °F 58 °F 80 °F (2006)
Min Temperature 42 °F 35 °F 17 °F (1973)
Degree Days  
Heating Degree Days 16    
Moisture  
Dew Point 46 °F    
Average Humidity 91    
Maximum Humidity 96    
Minimum Humidity 82    
Precipitation  
Precipitation 2.67 in - - ()
Sea Level Pressure  
Sea Level Pressure 29.68 in    
Wind  
Wind Speed 5 mph (NNE)    
Max Wind Speed 16 mph    
Max Gust Speed 29 mph    
Visibility 4 miles    
Events Rain , Thunderstorm    
Averages and records for this station are not official NWS values.
T = Trace of Precipitation, MM = Missing Value Source: NWS Daily Summary

Daily Weather History Graph

Daily Weather History Graph

Search for Another Location

Airport:

Trip Planner

Search our weather history database for the weather conditions in past years. The results will help you decide how hot, cold, wet, or windy it might be!

Date:

Astronomy

Apr. 13, 2014 Rise Set
Actual Time 6:23 AM CDT 7:43 PM CDT
Civil Twilight 5:54 AM CDT 8:12 PM CDT
Nautical Twilight 5:19 AM CDT 8:48 PM CDT
Astronomical Twilight 4:41 AM CDT 9:25 PM CDT
Moon 6:19 PM CDT (4/13) 5:25 AM CDT (4/13)
Length of Visible Light 14h 18m
Length of Day
13h 19m
Waxing Gibbous, 97% of the Moon is Illuminated
Apr 13
Waxing Gibbous
Apr 15
Full
Apr 22
Last Quarter
Apr 29
New
May 6
First Quarter

Hourly Weather History & Observations

Time (CDT) Temp. Windchill Dew Point Humidity Pressure Visibility Wind Dir Wind Speed Gust Speed Precip Events Conditions
12:24 AM 50.0 °F - 48.0 °F 93% 29.70 in 1.5 mi Calm Calm - 0.14 in Rain , Thunderstorm Heavy Thunderstorms and Rain
12:46 AM 50.0 °F - 48.0 °F 93% 29.70 in 1.5 mi ENE 3.5 mph - 0.25 in Rain , Thunderstorm Heavy Rain
12:53 AM 50.0 °F - 48.0 °F 93% 29.71 in 1.8 mi Calm Calm - 0.29 in Rain Heavy Rain
1:21 AM 50.0 °F - 48.0 °F 93% 29.67 in 2.0 mi Variable 5.8 mph - 0.11 in Rain Rain
1:34 AM 50.0 °F - 48.0 °F 93% 29.68 in 3.0 mi Calm Calm - 0.14 in Rain , Thunderstorm Rain
1:41 AM 50.0 °F - 48.0 °F 93% 29.68 in 2.5 mi ENE 3.5 mph - 0.17 in Rain , Thunderstorm Rain
1:46 AM 50.0 °F - 48.0 °F 93% 29.69 in 1.8 mi Calm Calm - 0.19 in Rain , Thunderstorm Heavy Thunderstorms and Rain
1:53 AM 50.0 °F - 46.9 °F 89% 29.68 in 1.5 mi Calm Calm - 0.23 in Rain , Thunderstorm Heavy Thunderstorms and Rain
2:06 AM 50.0 °F - 48.0 °F 93% 29.65 in 1.8 mi East 5.8 mph - 0.05 in Rain , Thunderstorm Heavy Rain
2:13 AM 50.0 °F - 48.0 °F 93% 29.65 in 2.0 mi North 4.6 mph - 0.08 in Rain Rain
2:25 AM 51.1 °F - 48.9 °F 92% 29.65 in 4.0 mi East 3.5 mph - 0.10 in Rain Rain
2:53 AM 52.0 °F - 50.0 °F 93% 29.70 in 6.0 mi WNW 5.8 mph - 0.14 in Rain Light Rain
3:06 AM 54.0 °F - 51.1 °F 90% 29.73 in 5.0 mi West 6.9 mph - 0.01 in Rain Light Rain
3:53 AM 53.1 °F - 51.1 °F 93% 29.69 in 6.0 mi Calm Calm - 0.06 in Rain Light Rain
4:53 AM 52.0 °F - 50.0 °F 93% 29.68 in 5.0 mi Calm Calm - 0.00 in   Overcast
5:53 AM 50.0 °F - 46.9 °F 89% 29.69 in 5.0 mi NNE 4.6 mph - N/A   Overcast
6:29 AM 48.9 °F - 46.0 °F 90% 29.70 in 5.0 mi ENE 5.8 mph - N/A   Overcast
6:53 AM 46.9 °F - 45.0 °F 93% 29.73 in 2.5 mi NNE 8.1 mph - N/A   Overcast
7:19 AM 48.0 °F - 46.0 °F 93% 29.75 in 1.8 mi Calm Calm - N/A   Overcast
7:29 AM 48.0 °F - 46.0 °F 93% 29.76 in 2.5 mi Calm Calm - N/A   Overcast
7:48 AM 48.2 °F - 46.4 °F 93% 29.75 in 1.5 mi North 5.8 mph - N/A   Overcast
7:53 AM 48.0 °F - 46.0 °F 93% 29.77 in 1.2 mi North 6.9 mph - N/A   Overcast
8:21 AM 48.0 °F - 46.0 °F 93% 29.75 in 0.8 mi NNE 6.9 mph - N/A   Overcast
8:38 AM 48.0 °F - 46.0 °F 93% 29.75 in 1.2 mi NNE 4.6 mph - N/A   Overcast
8:53 AM 48.0 °F - 46.9 °F 96% 29.74 in 1.8 mi NE 8.1 mph - N/A   Overcast
9:04 AM 48.0 °F - 46.9 °F 96% 29.72 in 2.0 mi NE 5.8 mph - N/A   Overcast
9:15 AM 48.9 °F - 46.9 °F 93% 29.71 in 4.0 mi NE 6.9 mph - N/A   Overcast
9:53 AM 48.9 °F - 46.0 °F 90% 29.78 in 7.0 mi Variable 3.5 mph - N/A   Overcast
10:53 AM 48.9 °F - 46.0 °F 90% 29.79 in 8.0 mi NE 4.6 mph - N/A   Overcast
11:53 AM 48.9 °F - 46.0 °F 90% 29.78 in 8.0 mi NNE 5.8 mph - N/A   Overcast
12:53 PM 48.9 °F - 46.0 °F 90% 29.74 in 9.0 mi NNE 8.1 mph - N/A   Overcast
1:53 PM 50.0 °F - 45.0 °F 83% 29.70 in 10.0 mi NE 8.1 mph - N/A   Overcast
2:53 PM 48.9 °F - 46.0 °F 90% 29.70 in 1.8 mi ENE 5.8 mph - 0.09 in Rain Heavy Rain
3:16 PM 48.0 °F - 46.0 °F 93% 29.68 in 2.0 mi Variable 4.6 mph - 0.10 in Rain Rain
3:30 PM 48.0 °F - 46.0 °F 93% 29.68 in 2.0 mi NE 5.8 mph - 0.15 in Rain Heavy Rain
3:38 PM 48.0 °F - 46.0 °F 93% 29.68 in 2.5 mi NE 5.8 mph - 0.17 in Rain Rain
3:46 PM 48.0 °F - 46.0 °F 93% 29.68 in 3.0 mi NE 8.1 mph - 0.19 in Rain Rain
3:53 PM 48.0 °F - 46.0 °F 93% 29.68 in 3.0 mi Variable 5.8 mph - 0.21 in Rain Rain
4:05 PM 48.0 °F - 46.0 °F 93% 29.66 in 2.5 mi NE 6.9 mph - 0.04 in Rain Heavy Rain
4:23 PM 48.0 °F - 45.0 °F 89% 29.63 in 1.8 mi North 10.4 mph - 0.12 in Rain Heavy Rain
4:34 PM 46.9 °F - 45.0 °F 93% 29.63 in 3.0 mi NNE 10.4 mph - 0.15 in Rain Rain
4:50 PM 46.4 °F 41.1 °F 44.6 °F 93% 29.61 in 2.0 mi NNE 11.5 mph - 0.22 in Rain Heavy Rain
4:53 PM 46.9 °F - 44.1 °F 90% 29.63 in 2.0 mi NNE 11.5 mph 19.6 mph 0.24 in Rain Heavy Rain
5:06 PM 46.9 °F - 44.1 °F 90% 29.62 in 4.0 mi NNE 8.1 mph 17.3 mph 0.04 in Rain Rain
5:24 PM 46.9 °F - 44.1 °F 90% 29.61 in 2.0 mi NNE 8.1 mph - 0.13 in Rain Heavy Rain
5:53 PM 46.9 °F - 44.1 °F 90% 29.62 in 2.0 mi NE 11.5 mph 17.3 mph 0.26 in Rain Heavy Rain
6:49 PM 46.4 °F 42.4 °F 44.6 °F 93% 29.60 in 1.8 mi NNE 8.1 mph - 0.27 in Rain Heavy Rain
6:53 PM 46.9 °F - 44.1 °F 90% 29.61 in 1.8 mi NNE 9.2 mph - 0.29 in Rain Heavy Rain
7:00 PM 46.9 °F - 44.1 °F 90% 29.61 in 2.0 mi NNE 11.5 mph - 0.03 in Rain Heavy Rain
7:53 PM 46.9 °F - 45.0 °F 93% 29.58 in 3.0 mi NNE 10.4 mph 16.1 mph 0.43 in Rain Heavy Rain
8:53 PM 48.0 °F - 44.1 °F 86% 29.59 in 4.0 mi NNE 12.7 mph 26.5 mph 0.21 in Rain Rain
9:45 PM 46.9 °F - 42.1 °F 83% 29.58 in 9.0 mi NE 13.8 mph 28.8 mph 0.05 in Rain Light Rain
9:53 PM 46.9 °F - 42.1 °F 83% 29.59 in 10.0 mi NNE 12.7 mph 23.0 mph 0.05 in Rain Light Rain
10:53 PM 44.1 °F 36.8 °F 39.0 °F 82% 29.59 in 6.0 mi NNE 16.1 mph 25.3 mph 0.06 in Rain Rain
11:53 PM 42.1 °F 34.5 °F 37.9 °F 85% 29.58 in 6.0 mi NNE 15.0 mph 25.3 mph 0.11 in Rain Rain